�N����,����,�g�[���i���ԁj���x,�g�[�����x,��g�[���i���ցj���x,����
 2004/02/01, 0:00,16.7,63,10,9.7
 2004/02/01, 0:15,16.4,64.5,10,9.8
 2004/02/01, 0:30,16,64,9.9,9.8
 2004/02/01, 0:45,15.9,64,9.9,9.8
 2004/02/01, 1:00,15.7,64,9.8,9.8
 2004/02/01, 1:15,15.6,65,9.6,9.8
 2004/02/01, 1:30,15.5,67,9.7,9.8
 2004/02/01, 1:45,15.4,69,9.6,9.8
 2004/02/01, 2:00,15.3,67,9.5,9.8
 2004/02/01, 2:15,15.4,65.5,9.4,9.8
 2004/02/01, 2:30,15.2,65,9.4,9.8
 2004/02/01, 2:45,15.1,63.5,9.3,9.8
 2004/02/01, 3:00,15,63,9.2,9.8
 2004/02/01, 3:15,15,62.5,9.2,9.8
 2004/02/01, 3:30,15.1,61,9.3,9.8
 2004/02/01, 3:45,15.1,63,9.1,9.8
 2004/02/01, 4:00,15.2,65,9,9.8
 2004/02/01, 4:15,15.2,63.5,9.1,9.8
 2004/02/01, 4:30,15.2,63,9,9.7
 2004/02/01, 4:45,15.3,62.5,8.9,9.7
 2004/02/01, 5:00,15.2,62,8.8,9.7
 2004/02/01, 5:15,14.9,60.5,8.7,9.7
 2004/02/01, 5:30,14.3,59,8.6,9.7
 2004/02/01, 5:45,13.8,58.5,8.6,9.6
 2004/02/01, 6:00,13.4,58,8.4,9.6
 2004/02/01, 6:15,13.1,58.5,8.4,9.6
 2004/02/01, 6:30,12.1,53,8.3,9.6
 2004/02/01, 6:45,11.4,53.5,8.3,9.6
 2004/02/01, 7:00,10.9,54,8.2,9.5
 2004/02/01, 7:15,10.5,54,8.2,9.5
 2004/02/01, 7:30,10.1,55,8.1,9.5
 2004/02/01, 7:45,9.8,56.5,8.1,9.5
 2004/02/01, 8:00,9.6,57,8.1,9.5
 2004/02/01, 8:15,9.4,56,8.1,9.4
 2004/02/01, 8:30,9.3,57,8.1,9.4
 2004/02/01, 8:45,9.3,57,8.3,9.4
 2004/02/01, 9:00,9.3,57,8.3,9.4
 2004/02/01, 9:15,9.4,58,8.4,9.4
 2004/02/01, 9:30,9.4,58,8.5,9.3
 2004/02/01, 9:45,9.6,58,8.6,9.3
 2004/02/01,10:00,9.7,58,8.7,9.3
 2004/02/01,10:15,9.9,57,8.9,9.3
 2004/02/01,10:30,10,57,9,9.3
 2004/02/01,10:45,10.1,57,9.2,9.3
 2004/02/01,11:00,10.3,57,9.4,9.4
 2004/02/01,11:15,10.6,56,9.6,9.4
 2004/02/01,11:30,10.7,56,9.9,9.4
 2004/02/01,11:45,12.1,55,10.2,8.1
 2004/02/01,12:00,14.8,52,10.3,8.1
 2004/02/01,12:15,16.6,51,10.6,8.1
 2004/02/01,12:30,17.7,52,10.9,8.1
 2004/02/01,12:45,18.2,53.5,11.2,8.1
 2004/02/01,13:00,18.4,53,11.5,8.2
 2004/02/01,13:15,18.5,53.5,11.8,8.2
 2004/02/01,13:30,18.7,42,12.1,8.3
 2004/02/01,13:45,18.5,51,12.4,8.3
 2004/02/01,14:00,18.5,53,12.7,8.4
 2004/02/01,14:15,18.4,53.5,12.9,8.4
 2004/02/01,14:30,18.4,55,13,8.5
 2004/02/01,14:45,18.1,51,13.5,9.4
 2004/02/01,15:00,17.1,47,14.4,9.5
 2004/02/01,15:15,16.5,49,14.7,9.5
 2004/02/01,15:30,16.1,50,14.7,9.5
 2004/02/01,15:45,15.6,50.5,14.6,9.6
 2004/02/01,16:00,15.2,52,14.4,9.6
 2004/02/01,16:15,14.9,52,14.2,9.6
 2004/02/01,16:30,14.6,52,14,9.7
 2004/02/01,16:45,14.4,53,13.9,9.8
 2004/02/01,17:00,14.1,53,13.6,9.8
 2004/02/01,17:15,13.9,53,13.4,9.9
 2004/02/01,17:30,13.6,53,13,9.9
 2004/02/01,17:45,13.1,45.5,12.4,10
 2004/02/01,18:00,14.2,57,12.4,10.1
 2004/02/01,18:15,15.1,59.5,12.4,10.1
 2004/02/01,18:30,15.6,61,12.4,10.2
 2004/02/01,18:45,16.1,60.5,12.3,10.2
 2004/02/01,19:00,16.3,60,12.3,10.3
 2004/02/01,19:15,16.5,58.5,12.2,10.4
 2004/02/01,19:30,16.5,56,12.2,10.4
 2004/02/01,19:45,16.7,61.5,12.1,10.4
 2004/02/01,20:00,16.8,61,12.1,10.5
 2004/02/01,20:15,16.9,62,12.1,10.6
 2004/02/01,20:30,17,62,12.1,10.6
 2004/02/01,20:45,17,62,12,10.6
 2004/02/01,21:00,17,60,11.9,10.7
 2004/02/01,21:15,17,60,11.9,10.8
 2004/02/01,21:30,17,59,11.7,10.8
 2004/02/01,21:45,17,59,11.7,10.8
 2004/02/01,22:00,17,59,11.7,10.8
 2004/02/01,22:15,17,59,11.6,10.9
 2004/02/01,22:30,17.1,58,11.6,10.9
 2004/02/01,22:45,17.1,58,11.6,10.9
 2004/02/01,23:00,17,59,11.6,11
 2004/02/01,23:15,17,60,11.6,11
 2004/02/01,23:30,17.1,60,11.6,11
 2004/02/01,23:45,17.1,60,11.6,11.1
 2004/02/02, 0:00,17,61,11.7,11.1
 2004/02/02, 0:15,17,62.5,11.6,11.1
 2004/02/02, 0:30,17,62,11.6,11.1
 2004/02/02, 0:45,17,61,11.6,11.1
 2004/02/02, 1:00,16.9,61,11.6,11.2
 2004/02/02, 1:15,16.8,62,11.6,11.2
 2004/02/02, 1:30,16.8,63,11.6,11.2
 2004/02/02, 1:45,16.6,62.5,11.6,11.2
 2004/02/02, 2:00,16.6,62,11.7,11.2
 2004/02/02, 2:15,16.4,59,11.6,11.2
 2004/02/02, 2:30,16.3,59,11.6,11.2
 2004/02/02, 2:45,16.1,59.5,11.5,11.2
 2004/02/02, 3:00,16.1,60,11.5,11.3
 2004/02/02, 3:15,16,62.5,11.4,11.3
 2004/02/02, 3:30,16.1,63,11.4,11.3
 2004/02/02, 3:45,16.2,63,11.4,11.3
 2004/02/02, 4:00,16.1,62,11.4,11.3
 2004/02/02, 4:15,16.1,62,11.4,11.3
 2004/02/02, 4:30,16.2,62,11.4,11.3
 2004/02/02, 4:45,15.9,58,11.4,11.3
 2004/02/02, 5:00,15.2,53,11.5,11.3
 2004/02/02, 5:15,14.6,54.5,11.5,11.3
 2004/02/02, 5:30,14,55,11.5,11.3
 2004/02/02, 5:45,13.6,56,11.5,11.3
 2004/02/02, 6:00,13.3,57,11.5,11.3
 2004/02/02, 6:15,13.1,57.5,11.4,11.3
 2004/02/02, 6:30,12.9,58,11.4,11.4
 2004/02/02, 6:45,12.7,59,11.2,10.7
 2004/02/02, 7:00,12.6,59,11.3,10.6
 2004/02/02, 7:15,12.4,60,11.2,10.6
 2004/02/02, 7:30,12.3,64,11.2,10.6
 2004/02/02, 7:45,13.6,70.5,11.1,10.4
 2004/02/02, 8:00,14.5,74,11.1,9.9
 2004/02/02, 8:15,15,73,11.2,9.9
 2004/02/02, 8:30,15.3,71,11.2,9.9
 2004/02/02, 8:45,15.4,70.5,11.3,9.9
 2004/02/02, 9:00,15.7,68,11.5,10
 2004/02/02, 9:15,15.9,65.5,11.5,10
 2004/02/02, 9:30,16.2,65,11.6,10
 2004/02/02, 9:45,16,64.5,11.6,10.1
 2004/02/02,10:00,16.3,63,11.6,10.1
 2004/02/02,10:15,16.4,63.5,11.8,10.1
 2004/02/02,10:30,16.5,64,11.9,10.2
 2004/02/02,10:45,16.9,63,12,10.2
 2004/02/02,11:00,16.9,64,12,10.2
 2004/02/02,11:15,16.7,62,12.1,10.3
 2004/02/02,11:30,16.5,62,12,10.3
 2004/02/02,11:45,16.4,62,12,10.3
 2004/02/02,12:00,16.3,62,12.1,10.4
 2004/02/02,12:15,15.9,58.5,12.3,10.4
 2004/02/02,12:30,15.4,56,12.6,10.4
 2004/02/02,12:45,15,58,12.8,10.5
 2004/02/02,13:00,15,60,13,10.5
 2004/02/02,13:15,15.1,62.5,12.9,10.6
 2004/02/02,13:30,15.8,64,12.7,10.6
 2004/02/02,13:45,16.1,64,12.6,10.6
 2004/02/02,14:00,16.4,65,12.6,10.7
 2004/02/02,14:15,16.5,66.5,12.8,10.7
 2004/02/02,14:30,16.8,66,12.7,10.7
 2004/02/02,14:45,16.8,66,12.9,10.8
 2004/02/02,15:00,16.8,66,12.8,10.8
 2004/02/02,15:15,16.7,65,12.9,10.9
 2004/02/02,15:30,16.7,66,12.7,10.9
 2004/02/02,15:45,16.7,65.5,12.8,10.9
 2004/02/02,16:00,16.6,65,12.8,11
 2004/02/02,16:15,16.1,64,12.7,11
 2004/02/02,16:30,15.8,63,12.9,11.1
 2004/02/02,16:45,15.5,63.5,12.8,11.1
 2004/02/02,17:00,15,66,12.8,11.1
 2004/02/02,17:15,14.9,65,12.6,11.2
 2004/02/02,17:30,14.6,64,12.8,11.2
 2004/02/02,17:45,14.4,65,13.1,11.2
 2004/02/02,18:00,14.4,65,13.2,11.3
 2004/02/02,18:15,14.2,65.5,13.2,11.3
 2004/02/02,18:30,14.2,66,13.4,11.4
 2004/02/02,18:45,14.4,68.5,13.1,11.4
 2004/02/02,19:00,15.2,70,13,11.4
 2004/02/02,19:15,15.6,69.5,12.9,11.5
 2004/02/02,19:30,15.9,69,12.9,11.5
 2004/02/02,19:45,16.1,71,12.9,11.5
 2004/02/02,20:00,16.2,72,12.7,11.6
 2004/02/02,20:15,16.3,70,12.8,11.6
 2004/02/02,20:30,16.4,71,12.7,11.6
 2004/02/02,20:45,16.5,70,12.8,11.7
 2004/02/02,21:00,16.7,70,12.7,11.7
 2004/02/02,21:15,16.7,68.5,12.6,11.7
 2004/02/02,21:30,16.8,68,12.5,11.7
 2004/02/02,21:45,16.9,67,12.5,11.8
 2004/02/02,22:00,17,66,12.4,11.8
 2004/02/02,22:15,17.3,66.5,12.4,11.8
 2004/02/02,22:30,17.4,66,12.4,11.8
 2004/02/02,22:45,17.3,69.5,12.4,11.9
 2004/02/02,23:00,17.2,71,12.4,11.9
 2004/02/02,23:15,17.3,72.5,12.3,11.9
 2004/02/02,23:30,17.2,71,12.3,11.9
 2004/02/02,23:45,17.2,72,12.3,9.4
 2004/02/03, 0:00,17.2,71,12.3,9.3
 2004/02/03, 0:15,17,71,12.3,9.4
 2004/02/03, 0:30,17,72,12.3,9.4
 2004/02/03, 0:45,16.9,73.5,12.3,9.4
 2004/02/03, 1:00,16.8,73,12.2,9.5
 2004/02/03, 1:15,16.8,72.5,12.2,9.6
 2004/02/03, 1:30,16.7,72,12.1,9.6
 2004/02/03, 1:45,16.7,71,12.2,9.6
 2004/02/03, 2:00,16.6,72,12.1,9.7
 2004/02/03, 2:15,16.6,73,12.1,9.7
 2004/02/03, 2:30,16.6,73,12,9.7
 2004/02/03, 2:45,16.2,70.5,12.1,9.6
 2004/02/03, 3:00,15.8,69,12,9.5
 2004/02/03, 3:15,15,64.5,12.1,9.5
 2004/02/03, 3:30,14.6,65,12.1,9.5
 2004/02/03, 3:45,14.2,64.5,12.1,9.6
 2004/02/03, 4:00,13.9,65,12,9.6
 2004/02/03, 4:15,13.6,66,11.9,9.6
 2004/02/03, 4:30,13.4,65,11.8,9.7
 2004/02/03, 4:45,13.2,66,11.8,9.7
 2004/02/03, 5:00,13,66,11.7,9.7
 2004/02/03, 5:15,12.9,66.5,11.6,9.8
 2004/02/03, 5:30,12.7,67,11.5,9.8
 2004/02/03, 5:45,12.6,67.5,11.4,9.8
 2004/02/03, 6:00,12.3,68,11.3,9.9
 2004/02/03, 6:15,12.1,67,11.3,9.9
 2004/02/03, 6:30,12.1,68,11.2,9.9
 2004/02/03, 6:45,11.9,67.5,11.1,9.9
 2004/02/03, 7:00,11.8,68,11,10
 2004/02/03, 7:15,11.6,68,10.9,10
 2004/02/03, 7:30,11.6,68,10.9,10.9
 2004/02/03, 7:45,11.5,68,11.1,10.9
 2004/02/03, 8:00,11.4,69,11,10.9
 2004/02/03, 8:15,11.8,70.5,11.1,10.9
 2004/02/03, 8:30,13.1,74,11.1,10.9
 2004/02/03, 8:45,14,73,11.1,10.9
 2004/02/03, 9:00,14.8,73,11.4,10.9
 2004/02/03, 9:15,15.5,72,11.4,10.9
 2004/02/03, 9:30,16,71,11.6,10.9
 2004/02/03, 9:45,16.3,69,11.8,10.9
 2004/02/03,10:00,16.7,67,11.8,11
 2004/02/03,10:15,16.9,64,12.1,11
 2004/02/03,10:30,16,41,12,11
 2004/02/03,10:45,16.5,55,11.9,11
 2004/02/03,11:00,16.3,57,12,11
 2004/02/03,11:15,16.6,56,12.2,11
 2004/02/03,11:30,17.1,54,12.3,11.1
 2004/02/03,11:45,17.5,54,12.4,11.1
 2004/02/03,12:00,18.1,50,12.5,11.1
 2004/02/03,12:15,18.4,51,12.6,11.1
 2004/02/03,12:30,18.4,50,12.7,11.1
 2004/02/03,12:45,18.4,51.5,12.8,11.2
 2004/02/03,13:00,18.4,55,12.9,11.2
 2004/02/03,13:15,18.6,55,13.1,11.2
 2004/02/03,13:30,18.5,54,13.2,11.2
 2004/02/03,13:45,18,54,13.3,11.3
 2004/02/03,14:00,17.1,47,13.6,11.3
 2004/02/03,14:15,16.1,49.5,13.8,11.3
 2004/02/03,14:30,15.5,51,13.8,11.4
 2004/02/03,14:45,15.1,52,13.7,11.4
 2004/02/03,15:00,14.8,52,13.7,11.4
 2004/02/03,15:15,14.6,53,13.9,11.4
 2004/02/03,15:30,14.6,53,14,11.5
 2004/02/03,15:45,14.4,52,13.8,11.5
 2004/02/03,16:00,14.2,52,13.6,11.5
 2004/02/03,16:15,13.9,51,13.4,11.6
 2004/02/03,16:30,13.6,51,13.2,11.6
 2004/02/03,16:45,13.4,52,13.1,11.6
 2004/02/03,17:00,13.3,52,12.9,11.7
 2004/02/03,17:15,13.1,53,12.7,11.7
 2004/02/03,17:30,13.7,58,12.4,11.7
 2004/02/03,17:45,14.2,57,12.1,11.7
 2004/02/03,18:00,14.7,58,12,11.7
 2004/02/03,18:15,15.1,59,11.8,11.8
 2004/02/03,18:30,15.3,58,11.7,11.8
 2004/02/03,18:45,15.2,53,11.4,11.8
 2004/02/03,19:00,15.2,52,11.4,11.8
 2004/02/03,19:15,15.3,53.5,11.2,11.8
 2004/02/03,19:30,15.5,57,11.1,11.8
 2004/02/03,19:45,15.6,58,11,11.8
 2004/02/03,20:00,15.6,58,10.9,11.8
 2004/02/03,20:15,15.6,58,10.9,11.8
 2004/02/03,20:30,16.1,59,10.8,11.8
 2004/02/03,20:45,16.5,59,10.6,11.8
 2004/02/03,21:00,16.7,59,10.5,11.8
 2004/02/03,21:15,16.9,57.5,10.4,11.8
 2004/02/03,21:30,16.8,55,10.3,11.7
 2004/02/03,21:45,16.6,54.5,10.2,11.7
 2004/02/03,22:00,16.5,55,10.1,11.7
 2004/02/03,22:15,16.4,55,10.1,11.6
 2004/02/03,22:30,16.4,54,9.9,11.6
 2004/02/03,22:45,16.2,54,9.8,11.6
 2004/02/03,23:00,15.9,54,9.6,11.5
 2004/02/03,23:15,15.5,54,9.6,11.5
 2004/02/03,23:30,15.4,55,9.5,11.5
 2004/02/03,23:45,15.4,55,9.4,11.4
 2004/02/04, 0:00,15.2,56,9.3,11.4
 2004/02/04, 0:15,15.3,55,9.3,11.4
 2004/02/04, 0:30,15.3,57,9.2,11.3
 2004/02/04, 0:45,15.4,61,9.1,11.2
 2004/02/04, 1:00,15.4,62,9,11.2
 2004/02/04, 1:15,15.3,63.5,8.9,11.1
 2004/02/04, 1:30,15,59,8.9,11.1
 2004/02/04, 1:45,14.9,61,8.8,11
 2004/02/04, 2:00,14.8,62,8.7,11
 2004/02/04, 2:15,14.7,60.5,8.8,10.9
 2004/02/04, 2:30,14.6,61,8.7,10.8
 2004/02/04, 2:45,14.5,63,8.6,10.8
 2004/02/04, 3:00,14.4,62,8.6,10.7
 2004/02/04, 3:15,14.3,60.5,8.4,10.6
 2004/02/04, 3:30,14.1,60,8.4,9.4
 2004/02/04, 3:45,14.1,58,8.3,8.9
 2004/02/04, 4:00,14,58,8.2,8.9
 2004/02/04, 4:15,13.9,58,8.1,8.9
 2004/02/04, 4:30,13.9,58,8.1,8.8
 2004/02/04, 4:45,13.6,52.5,8.1,8.8
 2004/02/04, 5:00,12.6,47,8.2,8.8
 2004/02/04, 5:15,11.6,47.5,8.1,8.8
 2004/02/04, 5:30,11,48,8.1,8.7
 2004/02/04, 5:45,10.6,49,7.9,8.7
 2004/02/04, 6:00,10.1,49,7.9,8.7
 2004/02/04, 6:15,9.8,48.5,7.8,8.7
 2004/02/04, 6:30,9.4,51,7.7,8.6
 2004/02/04, 6:45,9.1,52,7.6,8.6
 2004/02/04, 7:00,8.9,53,7.5,8.6
 2004/02/04, 7:15,8.6,52.5,7.4,8.6
 2004/02/04, 7:30,8.5,53,7.4,8.5
 2004/02/04, 7:45,8.6,55.5,7.4,9.1
 2004/02/04, 8:00,9.9,69,7.5,9
 2004/02/04, 8:15,11.4,69,7.6,8.6
 2004/02/04, 8:30,12.6,66,7.7,8.6
 2004/02/04, 8:45,13.1,50,7.7,8.6
 2004/02/04, 9:00,14.2,52,7.8,8.6
 2004/02/04, 9:15,15.9,50,7.9,8.5
 2004/02/04, 9:30,17.3,46,8,8.5
 2004/02/04, 9:45,17.8,45.5,8.1,8.5
 2004/02/04,10:00,18,47,8.3,8.5
 2004/02/04,10:15,19,45,8.4,8.5
 2004/02/04,10:30,19.6,44,8.5,8.5
 2004/02/04,10:45,20,38.5,8.6,8.5
 2004/02/04,11:00,19,42,8.7,8.5
 2004/02/04,11:15,18,45,8.6,8.5
 2004/02/04,11:30,18.4,44,8.8,8.5
 2004/02/04,11:45,19,41.5,8.9,8.5
 2004/02/04,12:00,19,44,9.1,8.5
 2004/02/04,12:15,18.9,43.5,9.2,8.5
 2004/02/04,12:30,19,43,9.4,8.6
 2004/02/04,12:45,18.4,45,9.5,8.6
 2004/02/04,13:00,18.1,50,9.6,8.6
 2004/02/04,13:15,18,49.5,9.8,8.6
 2004/02/04,13:30,17.9,49,9.9,8.6
 2004/02/04,13:45,18,47.5,10.1,8.6
 2004/02/04,14:00,18.5,45,10.7,8.7
 2004/02/04,14:15,19.1,46,10.9,8.7
 2004/02/04,14:30,18.8,45,10.9,8.7
 2004/02/04,14:45,19.2,45,11.4,8.8
 2004/02/04,15:00,19.4,45,11.7,8.8
 2004/02/04,15:15,19.5,43,12.3,8.8
 2004/02/04,15:30,19.7,44,12.3,8.8
 2004/02/04,15:45,19.4,44.5,11.6,8.9
 2004/02/04,16:00,18.7,46,11.4,8.9
 2004/02/04,16:15,18.3,49,11.1,8.9
 2004/02/04,16:30,17.9,51,10.8,8.9
 2004/02/04,16:45,17.7,51.5,10.7,9
 2004/02/04,17:00,17.5,52,10.6,9
 2004/02/04,17:15,17.4,51.5,10.4,9
 2004/02/04,17:30,17.3,52,10.2,9.1
 2004/02/04,17:45,17.2,51.5,10.2,9.1
 2004/02/04,18:00,17.1,50,10.1,9.1
 2004/02/04,18:15,17.2,50.5,10.1,9.1
 2004/02/04,18:30,17.3,55,9.9,9.2
 2004/02/04,18:45,17.4,54.5,9.9,9.2
 2004/02/04,19:00,17.3,55,9.8,9.2
 2004/02/04,19:15,17.2,54,9.8,9.2
 2004/02/04,19:30,17.1,51,9.6,9.2
 2004/02/04,19:45,17.2,55,9.5,9.3
 2004/02/04,20:00,17.4,58,9.4,9.3
 2004/02/04,20:15,17.4,56.5,9.4,9.3
 2004/02/04,20:30,17.4,54,9.4,9.3
 2004/02/04,20:45,17.2,52.5,9.4,9.3
 2004/02/04,21:00,17.2,54,9.3,9.3
 2004/02/04,21:15,17.4,53.5,9.2,9.3
 2004/02/04,21:30,17.4,51,9.1,9.3
 2004/02/04,21:45,17.2,51.5,9.1,9.3
 2004/02/04,22:00,17.1,51,9.1,9.3
 2004/02/04,22:15,17.1,52.5,9.1,9.3
 2004/02/04,22:30,17.2,53,9.1,9.3
 2004/02/04,22:45,17.3,53,9.1,9.3
 2004/02/04,23:00,17.3,55,9.1,8.8
 2004/02/04,23:15,17.1,55,9,8.7
 2004/02/04,23:30,16.8,55,9,8.7
 2004/02/04,23:45,16.5,54,8.9,8.7
 2004/02/05, 0:00,16.3,54,8.8,8.7
 2004/02/05, 0:15,16.5,54.5,8.8,8.6
 2004/02/05, 0:30,16.6,54,8.7,8.6
 2004/02/05, 0:45,16.2,54.5,8.6,8.6
 2004/02/05, 1:00,15.9,55,8.6,8.6
 2004/02/05, 1:15,15.6,55.5,8.6,8.6
 2004/02/05, 1:30,15.4,56,8.5,8.6
 2004/02/05, 1:45,14.6,55,8.4,8.6
 2004/02/05, 2:00,14.2,54,8.3,8.6
 2004/02/05, 2:15,12.8,47,8.4,8.5
 2004/02/05, 2:30,12.1,47,8.4,8.5
 2004/02/05, 2:45,11.5,48.5,8.4,8.5
 2004/02/05, 3:00,11,50,8.3,8.5
 2004/02/05, 3:15,10.6,50.5,8.2,8.4
 2004/02/05, 3:30,10.4,51,8.1,8.4
 2004/02/05, 3:45,10.2,55,8.1,8.4
 2004/02/05, 4:00,10.9,63,7.9,8.4
 2004/02/05, 4:15,10.4,54,7.9,8.4
 2004/02/05, 4:30,9.9,53,7.8,8.3
 2004/02/05, 4:45,9.6,53,7.7,8.3
 2004/02/05, 5:00,9.3,54,7.6,8.3
 2004/02/05, 5:15,8.9,54,7.4,8.3
 2004/02/05, 5:30,8.7,54,7.4,8.2
 2004/02/05, 5:45,8.6,55,7.3,8.2
 2004/02/05, 6:00,8.3,55,7.2,8.2
 2004/02/05, 6:15,8.1,55,7.1,8.1
 2004/02/05, 6:30,7.9,55,7,8.1
 2004/02/05, 6:45,7.8,55.5,6.9,8.1
 2004/02/05, 7:00,7.6,56,6.8,8
 2004/02/05, 7:15,7.5,56,6.8,8
 2004/02/05, 7:30,7.4,57,6.7,8
 2004/02/05, 7:45,7.9,63,6.7,8.3
 2004/02/05, 8:00,9.1,69,6.7,8.1
 2004/02/05, 8:15,10.4,68,6.9,8.1
 2004/02/05, 8:30,11.2,66,6.9,8
 2004/02/05, 8:45,11.9,64.5,7.1,8
 2004/02/05, 9:00,12.7,62,7.3,8
 2004/02/05, 9:15,14.1,58.5,7.5,7.9
 2004/02/05, 9:30,15,55,7.9,7.9
 2004/02/05, 9:45,14.4,53.5,7.9,7.9
 2004/02/05,10:00,14.3,51,8.1,7.9
 2004/02/05,10:15,13.9,49,8.3,7.9
 2004/02/05,10:30,14.5,54,8.3,7.9
 2004/02/05,10:45,14.9,58.5,8.3,7.9
 2004/02/05,11:00,15,65,8.4,7.9
 2004/02/05,11:15,15.8,61.5,8.7,7.9
 2004/02/05,11:30,17.2,47,9.3,7.9
 2004/02/05,11:45,17.5,48.5,9.1,7.9
 2004/02/05,12:00,16.1,53,9,7.9
 2004/02/05,12:15,16.4,49,9.4,7.9
 2004/02/05,12:30,17.3,50,9.4,8
 2004/02/05,12:45,17,53.5,9.4,8
 2004/02/05,13:00,17,55,9.4,8
 2004/02/05,13:15,16.8,55.5,9.1,8
 2004/02/05,13:30,16.5,54,9,8
 2004/02/05,13:45,16.1,56,9.2,8.1
 2004/02/05,14:00,16.6,58,9.3,8.1
 2004/02/05,14:15,17.8,56,9.8,8.1
 2004/02/05,14:30,18.6,55,10.2,8.1
 2004/02/05,14:45,19,52.5,10.6,8.1
 2004/02/05,15:00,19.4,53,11.1,8.2
 2004/02/05,15:15,19.5,53,11.3,8.2
 2004/02/05,15:30,19.4,53,11,8.2
 2004/02/05,15:45,18.3,48,10.8,8.2
 2004/02/05,16:00,17.9,52,10.5,8.2
 2004/02/05,16:15,17.7,55.5,10.4,8.3
 2004/02/05,16:30,17.4,56,10.3,8.3
 2004/02/05,16:45,17.4,56,10.1,8.3
 2004/02/05,17:00,17.3,56,9.9,8.3
 2004/02/05,17:15,17.2,56.5,9.8,8.4
 2004/02/05,17:30,17,57,9.5,8.4
 2004/02/05,17:45,16.7,54,9.4,8.4
 2004/02/05,18:00,16.4,54,9.2,8.4
 2004/02/05,18:15,16.2,54,9.1,8.4
 2004/02/05,18:30,15.8,53,9,8.4
 2004/02/05,18:45,15.8,56.5,8.8,8.4
 2004/02/05,19:00,15.8,58,8.8,8.4
 2004/02/05,19:15,15.7,56.5,8.6,8.4
 2004/02/05,19:30,15.4,52,8.6,8.5
 2004/02/05,19:45,15.1,50,8.4,8.5
 2004/02/05,20:00,14.9,48,8.3,8.5
 2004/02/05,20:15,15.1,52,8.2,8.5
 2004/02/05,20:30,15.6,54,8.2,8.5
 2004/02/05,20:45,16,56,8.1,8.4
 2004/02/05,21:00,16.3,58,8,8.4
 2004/02/05,21:15,16.2,53.5,8,8.4
 2004/02/05,21:30,15.7,53,7.9,8.4
 2004/02/05,21:45,15.6,52,7.8,8.4
 2004/02/05,22:00,15.2,52,7.7,8.4
 2004/02/05,22:15,15,52,7.7,8.4
 2004/02/05,22:30,14.7,52,7.6,8.4
 2004/02/05,22:45,14.6,53,7.5,8.4
 2004/02/05,23:00,14.7,51,7.4,8.3
 2004/02/05,23:15,14.8,54.5,7.3,8.3
 2004/02/05,23:30,15.2,56,7.3,8.3
 2004/02/05,23:45,15.7,56,7.3,8.3
 2004/02/06, 0:00,15.8,56,7.3,8.3
 2004/02/06, 0:15,15.6,59,7.2,8.2
 2004/02/06, 0:30,15.4,62,7.1,8.2
 2004/02/06, 0:45,15.1,60,7.1,8.2
 2004/02/06, 1:00,15.1,60,7,8.2
 2004/02/06, 1:15,15.1,59,7,8.1
 2004/02/06, 1:30,15,59,7,8.1
 2004/02/06, 1:45,14.9,56,7,8.2
 2004/02/06, 2:00,14.9,57,7,8.2
 2004/02/06, 2:15,14.9,59,6.9,8.1
 2004/02/06, 2:30,14.9,60,6.8,8.1
 2004/02/06, 2:45,14.7,59,6.8,8.1
 2004/02/06, 3:00,14.7,58,6.8,8
 2004/02/06, 3:15,14.6,59.5,6.8,8
 2004/02/06, 3:30,13.6,46,6.9,8.3
 2004/02/06, 3:45,12.2,48,7,8.2
 2004/02/06, 4:00,11.2,49,7,8.1
 2004/02/06, 4:15,10.4,49,6.8,8.1
 2004/02/06, 4:30,10,49,6.8,8.1
 2004/02/06, 4:45,9.4,50,6.7,8
 2004/02/06, 5:00,9,51,6.6,8
 2004/02/06, 5:15,8.6,51.5,6.5,7.9
 2004/02/06, 5:30,8.3,52,6.4,7.9
 2004/02/06, 5:45,8.1,53.5,6.2,7.8
 2004/02/06, 6:00,7.8,54,6.1,7.8
 2004/02/06, 6:15,7.6,54.5,6.1,7.8
 2004/02/06, 6:30,7.3,55,6,7.7
 2004/02/06, 6:45,7.2,55,5.8,7.7
 2004/02/06, 7:00,6.9,55,5.8,7.6
 2004/02/06, 7:15,6.8,56,5.8,7.6
 2004/02/06, 7:30,6.9,58,5.7,7.5
 2004/02/06, 7:45,8.1,66.5,5.7,7.5
 2004/02/06, 8:00,9.4,68,5.7,7.4
 2004/02/06, 8:15,10.4,68.5,5.8,7.3
 2004/02/06, 8:30,11.2,68,5.9,7.3
 2004/02/06, 8:45,12.4,66,6.1,7.2
 2004/02/06, 9:00,13.7,62,6.1,7.2
 2004/02/06, 9:15,14.9,57.5,6.3,7.2
 2004/02/06, 9:30,16.2,54,6.4,7.2
 2004/02/06, 9:45,17,50.5,6.6,7.2
 2004/02/06,10:00,17.5,48,6.8,7.1
 2004/02/06,10:15,18.4,46,6.9,7.1
 2004/02/06,10:30,19.2,43,7.1,7.1
 2004/02/06,10:45,20.4,38.5,7.2,7.1
 2004/02/06,11:00,21.1,38,7.5,7.1
 2004/02/06,11:15,19.5,43.5,7.7,7.1
 2004/02/06,11:30,19.4,43,8,7.1
 2004/02/06,11:45,20.6,37.5,8.4,7.1
 2004/02/06,12:00,21.5,34,8.4,7.1
 2004/02/06,12:15,21,34.5,8.7,7.2
 2004/02/06,12:30,20,38,8.9,7.2
 2004/02/06,12:45,18.9,40.5,9,7.2
 2004/02/06,13:00,18.3,43,9,7.2
 2004/02/06,13:15,17.8,43.5,8.9,7.3
 2004/02/06,13:30,17.9,44,9.3,7.3
 2004/02/06,13:45,17.5,45,9.4,7.3
 2004/02/06,14:00,17.2,46,9.2,7.4
 2004/02/06,14:15,16.8,47.5,9.1,7.4
 2004/02/06,14:30,16.5,49,9.1,7.5
 2004/02/06,14:45,16.5,49,9.2,7.5
 2004/02/06,15:00,16.4,50,9.3,7.5
 2004/02/06,15:15,16.1,49,9.3,7.6
 2004/02/06,15:30,16,50,9.4,7.6
 2004/02/06,15:45,16.1,50,9.5,7.6
 2004/02/06,16:00,16.1,50,9.5,7.6
 2004/02/06,16:15,15.9,50.5,9.4,7.7
 2004/02/06,16:30,15.7,51,9.3,7.7
 2004/02/06,16:45,15.6,51,9.2,7.7
 2004/02/06,17:00,15.6,52,9.1,7.7
 2004/02/06,17:15,15.4,52,9.1,7.8
 2004/02/06,17:30,15.5,55,9,7.8
 2004/02/06,17:45,15.4,54.5,8.9,7.8
 2004/02/06,18:00,15.3,53,8.8,7.8
 2004/02/06,18:15,14.5,49.5,8.7,7.9
 2004/02/06,18:30,13.7,47,8.8,7.9
 2004/02/06,18:45,12.9,47,8.9,7.9
 2004/02/06,19:00,12.2,48,9.4,7.9
 2004/02/06,19:15,11.9,48.5,9.4,7.9
 2004/02/06,19:30,11.6,49,9.1,8
 2004/02/06,19:45,11.8,52.5,8.9,8
 2004/02/06,20:00,12.8,60,8.7,8
 2004/02/06,20:15,13.5,61.5,8.5,8
 2004/02/06,20:30,14,59,8.3,8
 2004/02/06,20:45,14.2,59.5,8.2,8
 2004/02/06,21:00,14.4,58,8.1,8
 2004/02/06,21:15,14.6,59,8.1,8
 2004/02/06,21:30,14.6,59,8.1,8
 2004/02/06,21:45,14.7,58.5,8,8
 2004/02/06,22:00,14.7,57,7.9,8
 2004/02/06,22:15,15.1,60,7.9,8
 2004/02/06,22:30,15.2,59,7.8,8
 2004/02/06,22:45,15.2,58,7.8,8
 2004/02/06,23:00,15.4,57,7.9,8
 2004/02/06,23:15,16.2,56.5,7.7,8
 2004/02/06,23:30,16.3,56,7.7,8
 2004/02/06,23:45,15.9,55,7.6,7.9
 2004/02/07, 0:00,15.6,55,7.6,7.9
 2004/02/07, 0:15,15.4,55,7.6,7.9
 2004/02/07, 0:30,15.4,55,7.4,7.9
 2004/02/07, 0:45,15.4,55,7.3,7.9
 2004/02/07, 1:00,15.5,55,7.3,7.8
 2004/02/07, 1:15,15.2,57,7.2,7.8
 2004/02/07, 1:30,15.1,62,7.1,7.8
 2004/02/07, 1:45,14.9,58.5,7.1,7.8
 2004/02/07, 2:00,14.9,59,7,7.7
 2004/02/07, 2:15,14.9,58,7,7.7
 2004/02/07, 2:30,14.8,60,7,7.7
 2004/02/07, 2:45,14.6,60,6.9,7.7
 2004/02/07, 3:00,14.7,61,7,7.6
 2004/02/07, 3:15,14.8,62,6.8,7.6
 2004/02/07, 3:30,14.8,61,6.8,7.5
 2004/02/07, 3:45,14.8,59.5,6.8,7.5
 2004/02/07, 4:00,14,52,7,7.5
 2004/02/07, 4:15,13.1,52,6.8,7.4
 2004/02/07, 4:30,12.3,49,6.7,7.4
 2004/02/07, 4:45,11.3,48.5,6.8,7.4
 2004/02/07, 5:00,10.4,50,6.7,7.3
 2004/02/07, 5:15,9.9,51,6.7,7.3
 2004/02/07, 5:30,9.4,52,6.5,7.3
 2004/02/07, 5:45,9,53,6.4,7.3
 2004/02/07, 6:00,8.6,53,6.4,7.2
 2004/02/07, 6:15,8.3,53,6.3,7.2
 2004/02/07, 6:30,8.1,53,6.2,7.2
 2004/02/07, 6:45,7.8,53,6.2,7.1
 2004/02/07, 7:00,7.5,53,6.1,7.1
 2004/02/07, 7:15,7.2,54,6,7.5
 2004/02/07, 7:30,7.1,54,5.9,7.6
 2004/02/07, 7:45,6.9,54,5.9,7.6
 2004/02/07, 8:00,6.9,55,6,7.5
 2004/02/07, 8:15,6.8,54.5,6.1,7.4
 2004/02/07, 8:30,6.8,55,6.1,7.4
 2004/02/07, 8:45,6.9,58,6.2,7.4
 2004/02/07, 9:00,6.9,55,6.2,7.3
 2004/02/07, 9:15,7,59.5,6.4,7.3
 2004/02/07, 9:30,7.1,61,6.5,7.3
 2004/02/07, 9:45,7.2,60.5,6.7,7.2
 2004/02/07,10:00,7.2,57,6.6,7.2
 2004/02/07,10:15,7.2,55.5,6.7,7.2
 2004/02/07,10:30,7.3,54,6.7,7.2
 2004/02/07,10:45,7.4,58,6.8,7.5
 2004/02/07,11:00,9.5,58,7,7.4
 2004/02/07,11:15,12.6,53,7.1,7.4
 2004/02/07,11:30,15.1,49,7.3,7.4
 2004/02/07,11:45,17.5,45,7.5,7.4
 2004/02/07,12:00,19.2,43,7.7,7.4
 2004/02/07,12:15,19.5,42.5,7.8,7.4
 2004/02/07,12:30,19.1,42,8,7.4
 2004/02/07,12:45,19.1,42,8.4,7.4
 2004/02/07,13:00,19.1,43,8.6,7.4
 2004/02/07,13:15,18.8,48.5,8.8,7.7
 2004/02/07,13:30,18.9,45,9,8
 2004/02/07,13:45,19,44.5,9.4,8
 2004/02/07,14:00,19.2,44,9.8,8.1
 2004/02/07,14:15,19.1,43,10.2,8.1
 2004/02/07,14:30,19.2,43,10.7,8.1
 2004/02/07,14:45,19,42.5,11,8.1
 2004/02/07,15:00,19,46,11.4,8.1
 2004/02/07,15:15,19.2,47,11.6,8.1
 2004/02/07,15:30,19.1,47,11.7,8.2
 2004/02/07,15:45,18.8,45.5,11.2,8.2
 2004/02/07,16:00,18.3,48,10.9,8.2
 2004/02/07,16:15,17.8,49,10.6,8.3
 2004/02/07,16:30,17.2,49,10.4,8.3
 2004/02/07,16:45,16.8,50,10.2,8.3
 2004/02/07,17:00,16.5,52,10.1,8.3
 2004/02/07,17:15,16.4,56.5,9.9,8.4
 2004/02/07,17:30,16.1,57,9.7,8.4
 2004/02/07,17:45,15.6,51.5,9.6,8.4
 2004/02/07,18:00,14.3,45,9.7,8.4
 2004/02/07,18:15,13.4,47,9.7,8.4
 2004/02/07,18:30,12.6,48,9.6,8.5
 2004/02/07,18:45,12.1,49,9.4,8.5
 2004/02/07,19:00,12.2,53,9.3,8.5
 2004/02/07,19:15,13.1,54.5,9.1,8.5
 2004/02/07,19:30,13.8,56,9,8.5
 2004/02/07,19:45,14.2,55,8.9,8.5
 2004/02/07,20:00,14.4,54,8.8,8.5
 2004/02/07,20:15,14.7,59,8.7,8.5
 2004/02/07,20:30,14.9,63,8.7,8.6
 2004/02/07,20:45,15.1,64.5,8.6,8.6
 2004/02/07,21:00,15.2,66,8.5,8.6
 2004/02/07,21:15,15.4,66,8.4,8.5
 2004/02/07,21:30,16,63,8.4,8.5
 2004/02/07,21:45,16.2,62.5,8.3,8.5
 2004/02/07,22:00,16.5,61,8.3,8.5
 2004/02/07,22:15,16.5,61,8.2,8.5
 2004/02/07,22:30,16.4,62,8.2,8.5
 2004/02/07,22:45,16.5,62,8.2,8.5
 2004/02/07,23:00,16.5,64,8.1,8.5
 2004/02/07,23:15,16.6,62,8,8.4
 2004/02/07,23:30,16.6,60,8,8.4
 2004/02/07,23:45,16.6,56.5,7.9,8.4
 2004/02/08, 0:00,16.4,56,7.8,8.4
 2004/02/08, 0:15,16.3,56,7.8,8.4